Location: Bothwell
(42.3833°S, 147.0000°E)
Time: 00:06:59
(UTC+10:00)

ZACube-1 - Visible Passes

Search period start: 01 October 2022 23:00
Search period end: 12 October 2022 00:00
Orbit: 580 x 662 km, 97.6° (Epoch: 01 October)

Date Brightness Start Highest point End Pass type
(mag) Time Alt. Az. Time Alt. Az. Time Alt. Az.
02 Oct ? 01:32:56 11° ESE 01:33:00 11° ESE 01:34:06 10° SE visible
02 Oct ? 04:10:06 39° SSW 04:10:06 39° SSW 04:13:03 10° SSW visible
03 Oct ? 02:50:27 16° ESE 02:50:27 16° ESE 02:53:05 10° SSE visible
03 Oct ? 04:27:37 36° SW 04:27:37 36° SW 04:30:33 10° SSW visible
04 Oct ? 03:07:58 23° ESE 03:07:58 23° ESE 03:11:16 10° SSE visible
04 Oct ? 04:45:08 29° SW 04:45:08 29° SW 04:47:53 10° SSW visible
05 Oct ? 03:25:29 32° ESE 03:25:29 32° ESE 03:29:11 10° S visible
05 Oct ? 05:02:39 22° WSW 05:02:39 22° WSW 05:05:03 10° SW visible
06 Oct ? 03:42:59 47° SE 03:42:59 47° SE 03:46:57 10° S visible
06 Oct ? 05:20:09 16° WSW 05:20:09 16° WSW 05:21:54 10° SW visible
07 Oct ? 04:00:29 65° SSE 04:00:29 65° SSE 04:04:34 10° S visible
07 Oct ? 05:37:40 10° WSW 05:37:40 10° WSW 05:37:57 10° WSW visible
08 Oct ? 02:40:50 12° ESE 02:41:55 13° ESE 02:44:07 10° SSE visible
08 Oct ? 04:18:00 63° SW 04:18:00 63° SW 04:22:04 10° SSW visible
09 Oct ? 02:58:19 18° E 02:59:12 19° ESE 03:02:28 10° SSE visible
09 Oct ? 04:35:29 44° WSW 04:35:29 44° WSW 04:39:27 10° SSW visible
10 Oct ? 03:15:49 27° E 03:16:32 28° ESE 03:20:27 10° S visible
10 Oct ? 04:52:59 30° W 04:52:59 30° W 04:56:40 10° SSW visible
11 Oct ? 03:33:18 39° E 03:33:55 41° ESE 03:38:14 10° S visible
11 Oct ? 05:10:28 20° W 05:10:28 20° W 05:13:39 10° SW visible
